Regional Weather Roundup
Issued by NWS

Home | Current Version | Previous Version | Text Only | Print | Product List | Glossary Off
Versions: 1 2 3 4 5 6 7 8 9 10 11 12 13 14 15 16 17 18 19 20 21 22 23 24 25 26 27 28 29 30 31 32 33 34 35 36 37 38 39 40 41 42 43 44 45 46 47 48 49 50

000
ASUS43 KLOT 250600
RWRIL

ILLINOIS REGIONAL WEATHER ROUNDUP
NATIONAL WEATHER SERVICE CHICAGO/ROMEOVILLE IL
1200 AM CST THU DEC 25 2014

NOTE: "FAIR" INDICATES FEW OR NO CLOUDS BELOW 12,000 FEET WITH NO
SIGNIFICANT WEATHER AND/OR OBSTRUCTIONS TO VISIBILITY.

* THESE STATIONS ARE NOT UNDER NWS QUALITY CONTROL. THEY ALSO MAY NOT
  REPORT WEATHER SUCH AS PRECIPITATION OR FOG.

ILZ001-002-007-009-015-016-024-250700-
NORTHWEST ILLINOIS

CITY           SKY/WX    TMP DP  RH WIND       PRES   REMARKS
MOLINE         CLOUDY    35  29  78 W12       29.74R WCI  27
6HR MIN TEMP:  35; 6HR MAX TEMP:  37;

STERLING*      CLOUDY    36  30  80 W16       29.72R WCI  26
$$

ILZ003-004-008-010-011-017-018-250700-
NORTH CENTRAL ILLINOIS

CITY           SKY/WX    TMP DP  RH WIND       PRES   REMARKS
ROCKFORD       CLOUDY    36  31  82 W13       29.68R WCI  27
6HR MIN TEMP:  35; 6HR MAX TEMP:  36; 6HR PCP: TRACE;

$$

ILZ005-006-012>014-019>023-250700-
NORTHEAST ILLINOIS

CITY           SKY/WX    TMP DP  RH WIND       PRES   REMARKS
CHICAGO-OHARE  CLOUDY    36  31  82 W15       29.63R WCI  27
6HR MIN TEMP:  36; 6HR MAX TEMP:  37; 6HR PCP: TRACE;

CHICAGO-MIDWAY CLOUDY    38  33  82 W15       29.65R WCI  29
6HR MIN TEMP:  38; 6HR MAX TEMP:  39; 6HR PCP: TRACE;

AURORA         CLOUDY    36  31  82 W17       29.67R WCI  26
6HR MIN TEMP:  36; 6HR MAX TEMP:  36;

WAUKEGAN       CLOUDY    35  31  85 W8G16     29.61R WCI  29
6HR MIN TEMP:  35; 6HR MAX TEMP:  37;

DUPAGE AIRPORT CLOUDY    36  31  82 W15       29.65R WCI  27
6HR MIN TEMP:  35; 6HR MAX TEMP:  36; 6HR PCP: TRACE;

WHEELING       CLOUDY    37  31  78 W15       29.64R WCI  28
6HR MIN TEMP:  36; 6HR MAX TEMP:  38; 6HR PCP: TRACE;

NORTHERLY ISL    N/A     37  31  79 W10         N/A  WCI  30
$$

LMZ740>746-250700-
SOUTHERN LAKE MICHIGAN

STATION/POSITION SKY/WX   TEMP    WIND        PRES    VSBY  WAVE
                          AIR SEA DIR/SP/G                  HT/PER
                          (F)     (DEG/KT/KT) (MB)    (MI)  (FT/S)
WAUKEGAN HARBOR            36                   N/A
HARRISON CRIB              37     280/ 19/ 24   N/A
BURNHAM HARBOR             37     280/ 12/ 14   N/A
CALUMET HARBOR             37     250/  8/ 13 1002.4R
MICHIGAN CITY              36     230/ 21/ 24   N/A
$$

ILZ025>027-034>036-040-047-049-050-058-095>099-250700-
WEST-CENTRAL ILLINOIS

CITY           SKY/WX    TMP DP  RH WIND       PRES   REMARKS
QUINCY         CLOUDY    35  29  78 W9        29.82R WCI  28
MACOMB*        CLOUDY    35  31  87 W12G17    29.81R WCI  26
$$

ILZ028>032-037-038-041>044-048-051>054-059>061-250700-
CENTRAL ILLINOIS

CITY           SKY/WX    TMP DP  RH WIND       PRES   REMARKS
DECATUR        CLOUDY    37  32  82 W10       29.80R WCI  30
PEORIA         CLOUDY    37  28  70 W14G20    29.78R WCI  28
6HR MIN TEMP:  37; 6HR MAX TEMP:  38;

LINCOLN*       CLOUDY    38  31  77 W7G17     29.79R WCI  32
SPRINGFIELD    CLOUDY    37  31  78 W13       29.81R WCI  29
6HR MIN TEMP:  37; 6HR MAX TEMP:  38; 6HR PCP: TRACE;

TAYLORVILLE    NOT AVBL
$$

ILZ033-039-045-046-055>057-062-063-250700-
EAST-CENTRAL ILLINOIS

CITY           SKY/WX    TMP DP  RH WIND       PRES   REMARKS
CHAMPAIGN      CLOUDY    36  33  89 W18       29.77R WCI  26
MATTOON        LGT RAIN  36  33  89 W9        29.80R WCI  29
$$

ILZ079-100>102-250700-
SOUTHWEST ILLINOIS

CITY           SKY/WX    TMP DP  RH WIND       PRES   REMARKS
BELLEVILLE     LGT RAIN  37  37  99 W6        29.87S WCI  32
CAHOKIA*       CLOUDY    39  35  86 W5        29.88R
$$

ILZ064>066-069>071-074>076-080>082-084>086-088>090-092>094-250700-
SOUTH-CENTRAL ILLINOIS

CITY           SKY/WX    TMP DP  RH WIND       PRES   REMARKS
CARBONDALE     CLOUDY    39  33  79 W8        29.90R WCI  33
6HR MIN TEMP:  38; 6HR MAX TEMP:  39; 6HR PCP: TRACE;

MT. VERNON     CLOUDY    37  30  75 SW9       29.88R WCI  31
$$

ILZ067-068-072-073-078-083-087-091-250700-
SOUTHEAST ILLINOIS

CITY           SKY/WX    TMP DP  RH WIND       PRES   REMARKS
LAWRENCEVILLE  CLOUDY    38  35  89 W14       29.84R WCI  30
ROBINSON*      CLOUDY    37  35  92 W17       29.84R WCI  28
$$

ABBREVIATIONS USED IN REMARKS
   TC - TEMPERATURE IN CELSIUS
  WCI - WIND CHILL INDEX
   HX - HEAT INDEX
  VSB - VISIBILITY
$$



USA.gov is the U.S. government's official web portal to all federal, state and local government web resources and services.